Terug naar catalogus

SL-8 DEB

ActiefLEO
NORAD 21168·DEBRIS·🇷🇺 Russia

Gelanceerd Feb 12, 1991 vanaf Plesetsk Cosmodrome

Loading…

Volgende Passages (komende 24 uur)

TLE

VersSource: Space-Track

Epoch: Sep 14, 2026, 02:59 UTC

1 21168U 91009AF  26257.12436427 -.00000031  00000-0 -13205-3 0  9998
2 21168  73.8970  47.1632 0198478  58.3443  57.3390 12.27806220592093

Volg SL-8 DEB in realtime met AllMySat

Download on the App Store